2020-051A (45939 NORAD) Tracking and Keplerian Element Data

This shows tracking and keplerian element data for the satellite.

Feedback or suggestion? Click here.




ElementValue
Catalog45939
Name2020-051A
Epoch Orbit275
Epoch Day225.17072983
Epoch Year2020
RAAN298.8668
Inclination97.4969
Eccentricity0.0010517
Argument of Perigee190.3962
Mean Anonmoly199.6194
Mean Motion15.24236519
Decay Rate3.64E-06
L11 45939U 20051A 20225.17072983 .00000364 00000-0 17899-4 0 9997
L22 45939 97.4969 298.8668 0010517 190.3962 199.6194 15.24236519 2758

Live tracking and technical data element details for 2020-051A (NORAD 45939). 2020-051A can be tracked NOW for your location showing map with azimuth and elevation plus other details from your city location.

Track the satellite on the map from your city or location and see movement details for azimuth, elevation, latitude, longitude, range, height, and movement on the map or in text.







IsCatalogInMostPopularTable: catalog: 45939, numindb: 2
Update: records affected: 1



GetName: 45939 2020-051A

Hit Count: updated at: Fri, 14 Aug 2020 05:37:10 GMT